FENGYUN 1C DEB, 30264

Orbit data source: Space-Track

FENGYUN 1C DEB, 30264 is space debris in SSO originally from a launch on Mon, 10 May 1999 UTC launched from the Taiyaun Space Center, China (TSC). Fengyun 1C debris stems from the Chinese weather satellite Fengyun-1C, which was intentionally destroyed by a Chinese anti-satellite missile in 2007. This event dramatically increased the amount of space debris, with thousands of trackable fragments posing hazards to satellites and human spaceflight. The Fengyun 1C debris cloud has become a focal point in discussions about space sustainability and the need for international regulations to prevent the creation of new debris.

Loading next visibility...
Identifier
30264, 1999-025XZ
Orbit
SSO
Country
Flag of CNCN / PRC
Related business
Manufacturer
Unknown
Mission
Spacecraft
Bus & Motor
Unknown
Mass
Unknown
Launch date (UTC)
1999-05-10 (27 years ago)
Launch vehicle
Unknown
Launch site
Taiyaun Space Center, China (TSC)
Object type
Payload
Rocket body
Debris
Shape & HBR
Unknown shape, 0.1 m
Radar Cross Section
Medium (>0.1 m² and <1 m²)

Expand to show TLE details & history
Last TLE update: 12 hours ago

TLE from 12 hours ago
0 FENGYUN 1C DEB
1 30264U 99025XZ  26176.12936646  .00001581  00000-0  89967-3 0  9996
2 30264  98.9546 234.8790 0108481 103.9975 311.7965 14.08336721992936
Epoch: 2026-06-25T03:06Z
TLE epoch observation values (Epoch: 2026-06-25T03:06:17.262Z)
Latitude
53.97982°
Longitude
-97.41852°
Altitude
821.996 km
Speed
7.474 km/s
True Right ascension
14h 49m 43s
True Declination
53° 49' 03"
Sunlit
Object was in daylight at epoch
Visualization orbit readout
Latitude
Unknown
Longitude
Unknown
Altitude
Unknown
Speed
Unknown
Apparent Right ascension
Unknown
Apparent Declination
Unknown
Sunlit
N/A
Visualization observer readout
Local Sidereal Time
01:58:58
Azimuth
Unknown
Elevation
Unknown
Doppler factor
Unknown
Orbital elements
Apogee altitude
940.799 km
Perigee altitude
783.71 km
Semi-major axis
7,240.392 km
Eccentricity
0.01085
Inclination
98.9546°
RAAN
234.879°
Arg. of periapsis
103.9975°
True anomaly
310.86134°
Mean anomaly
311.7965°
Eccentric anomaly
311.32976°
Mean motion
3.5229 °/min
Orbital period
102.19 mins
BSTAR
0.00089967
Loading maneuver chart data...
Computing Atmospheric mass density...

Documentation

Showing up to 5 results
|